HS5GDX-4 Weather Reports


time (UTC)temp
F
wind
direction
speed
knots
gust
knots
rain 1hr
in
rain 24hr
in
rain mn
in
humidity
%
barometer
mb
20260509043639 91 0 0.0 0.0 0.00 0.00 0.00 49 969.0
20260509042111 93 0 0.0 0.0 0.00 0.00 0.00 47 970.0
20260509040543 92 0 0.0 0.0 0.00 0.00 0.00 48 970.0
20260509035015 91 0 0.0 0.0 0.00 0.00 0.00 50 970.0
20260509033445 92 0 0.0 0.0 0.00 0.00 0.00 49 970.0
20260509033226 93 0 0.0 0.0 0.00 0.00 0.00 48 970.0
20260509032745 92 0 0.0 0.0 0.00 0.00 0.00 50 970.0
20260509032742 92 0 0.0 0.0 0.00 0.00 0.00 50 970.0
20260509031213 92 0 0.0 0.0 0.00 0.00 0.00 51 971.0
20260509025647 91 0 0.0 0.0 0.00 0.00 0.00 52 971.0
20260509024117 91 0 0.0 0.0 0.00 0.00 0.00 51 971.0
20260509022549 91 0 0.0 0.0 0.00 0.00 0.00 51 971.0
20260509021020 91 0 0.0 0.0 0.00 0.00 0.00 53 971.0
20260509015451 91 0 0.0 0.0 0.00 0.00 0.00 52 971.0
20260509013922 91 0 0.0 0.0 0.00 0.00 0.00 52 971.0
20260509012353 91 0 0.0 0.0 0.00 0.00 0.00 51 971.0
20260509010824 89 0 0.0 0.0 0.00 0.00 0.00 52 971.0
20260509005254 88 0 0.0 0.0 0.00 0.00 0.00 54 971.0
20260509003725 87 0 0.0 0.0 0.00 0.00 0.00 58 970.0
20260509002156 87 0 0.0 0.0 0.00 0.00 0.00 56 970.0
20260509000627 89 0 0.0 0.0 0.00 0.00 0.00 52 970.0
20260508235059 91 0 0.0 0.0 0.00 0.00 0.00 48 970.0
20260508233529 91 0 0.0 0.0 0.00 0.00 0.00 48 969.0
20260508232002 91 0 0.0 0.0 0.00 0.00 0.00 48 969.0
20260508232000 91 0 0.0 0.0 0.00 0.00 0.00 48 969.0
20260508230431 91 0 0.0 0.0 0.00 0.00 0.00 48 969.0
20260508224903 92 0 0.0 0.0 0.00 0.00 0.00 46 969.0
20260508223334 90 0 0.0 0.0 0.00 0.00 0.00 47 969.0
20260508221804 91 0 0.0 0.0 0.00 0.00 0.00 46 969.0
20260508220235 92 0 0.0 0.0 0.00 0.00 0.00 45 968.0
20260508214706 91 0 0.0 0.0 0.00 0.00 0.00 47 968.0
20260508213137 90 0 0.0 0.0 0.00 0.00 0.00 47 968.0
20260508211609 90 0 0.0 0.0 0.00 0.00 0.00 47 968.0
20260508210041 91 0 0.0 0.0 0.00 0.00 0.00 47 968.0
20260508204513 92 0 0.0 0.0 0.00 0.00 0.00 45 968.0
20260508202944 93 0 0.0 0.0 0.00 0.00 0.00 44 968.0
20260508201414 92 0 0.0 0.0 0.00 0.00 0.00 45 968.0
20260508195847 91 0 0.0 0.0 0.00 0.00 0.00 47 968.0
20260508194317 93 0 0.0 0.0 0.00 0.00 0.00 44 968.0
20260508192750 92 0 0.0 0.0 0.00 0.00 0.00 44 968.0
20260508191220 92 0 0.0 0.0 0.00 0.00 0.00 45 968.0
20260508185654 89 0 0.0 0.0 0.00 0.00 0.00 48 968.0
20260508185650 89 0 0.0 0.0 0.00 0.00 0.00 48 968.0
20260508184122 88 0 0.0 0.0 0.00 0.00 0.00 48 968.0
20260508182553 88 0 0.0 0.0 0.00 0.00 0.00 48 968.0
20260508181026 87 0 0.0 0.0 0.00 0.00 0.00 50 968.0
20260508175457 87 0 0.0 0.0 0.00 0.00 0.00 51 968.0
20260508173937 86 0 0.0 0.0 0.00 0.00 0.00 53 968.0
20260508173928 86 0 0.0 0.0 0.00 0.00 0.00 53 968.0
20260508173900 86 0 0.0 0.0 0.00 0.00 0.00 52 968.0
20260508173705 86 0 0.0 0.0 0.00 0.00 0.00 52 968.0
20260508165750 90 0 0.0 0.0 0.00 0.00 0.00 48 969.0
20260508164220 90 0 0.0 0.0 0.00 0.00 0.00 48 969.0
20260508162650 90 0 0.0 0.0 0.00 0.00 0.00 47 969.0
20260508161121 91 0 0.0 0.0 0.00 0.00 0.00 46 969.0
20260508155553 92 0 0.0 0.0 0.00 0.00 0.00 45 969.0
20260508154024 93 0 0.0 0.0 0.00 0.00 0.00 45 969.0
20260508152456 92 0 0.0 0.0 0.00 0.00 0.00 45 969.0
20260508150927 92 0 0.0 0.0 0.00 0.00 0.00 47 968.0
20260508150250 93 0 0.0 0.0 0.00 0.00 0.00 45 968.0
20260508144722 95 0 0.0 0.0 0.00 0.00 0.00 43 968.0
20260508143154 95 0 0.0 0.0 0.00 0.00 0.00 43 968.0
20260508141625 95 0 0.0 0.0 0.00 0.00 0.00 43 967.0
20260508140056 96 0 0.0 0.0 0.00 0.00 0.00 42 967.0
20260508134528 95 0 0.0 0.0 0.00 0.00 0.00 43 966.0
20260508133000 95 0 0.0 0.0 0.00 0.00 0.00 43 966.0
20260508131433 96 0 0.0 0.0 0.00 0.00 0.00 42 966.0
20260508125906 96 0 0.0 0.0 0.00 0.00 0.00 42 965.0
20260508124339 96 0 0.0 0.0 0.00 0.00 0.00 43 965.0
20260508122811 97 0 0.0 0.0 0.00 0.00 0.00 40 965.0
20260508121244 98 0 0.0 0.0 0.00 0.00 0.00 40 965.0
20260508115716 97 0 0.0 0.0 0.00 0.00 0.00 41 965.0
20260508114147 97 0 0.0 0.0 0.00 0.00 0.00 40 965.0
20260508112620 97 0 0.0 0.0 0.00 0.00 0.00 39 964.0
20260508111051 98 0 0.0 0.0 0.00 0.00 0.00 39 964.0
20260508105523 99 0 0.0 0.0 0.00 0.00 0.00 36 964.0
20260508103955 99 0 0.0 0.0 0.00 0.00 0.00 36 963.0
20260508102427 99 0 0.0 0.0 0.00 0.00 0.00 35 963.0
20260508100859 99 0 0.0 0.0 0.00 0.00 0.00 34 963.0
20260508095330 99 0 0.0 0.0 0.00 0.00 0.00 34 963.0
20260508093804 99 0 0.0 0.0 0.00 0.00 0.00 34 963.0
20260508092235 99 0 0.0 0.0 0.00 0.00 0.00 34 963.0
20260508090707 99 0 0.0 0.0 0.00 0.00 0.00 34 963.0
20260508085138 99 0 0.0 0.0 0.00 0.00 0.00 34 963.0
20260508083610 99 0 0.0 0.0 0.00 0.00 0.00 35 964.0
20260508082039 98 0 0.0 0.0 0.00 0.00 0.00 35 964.0
20260508080511 99 0 0.0 0.0 0.00 0.00 0.00 35 964.0
20260508074943 99 0 0.0 0.0 0.00 0.00 0.00 34 965.0
20260508074838 99 0 0.0 0.0 0.00 0.00 0.00 34 965.0
20260508073308 99 0 0.0 0.0 0.00 0.00 0.00 35 965.0
20260508071740 98 0 0.0 0.0 0.00 0.00 0.00 37 965.0
20260508070210 98 0 0.0 0.0 0.00 0.00 0.00 37 965.0
20260508064640 97 0 0.0 0.0 0.00 0.00 0.00 39 966.0
20260508063111 96 0 0.0 0.0 0.00 0.00 0.00 41 966.0
20260508061543 96 0 0.0 0.0 0.00 0.00 0.00 41 967.0
20260508060012 95 0 0.0 0.0 0.00 0.00 0.00 42 967.0
20260508054450 92 0 0.0 0.0 0.00 0.00 0.00 47 968.0
20260508054443 92 0 0.0 0.0 0.00 0.00 0.00 47 968.0
20260508052915 92 0 0.0 0.0 0.00 0.00 0.00 50 968.0
20260508051346 93 0 0.0 0.0 0.00 0.00 0.00 47 968.0
20260508045817 92 0 0.0 0.0 0.00 0.00 0.00 47 969.0
20260508044245 91 0 0.0 0.0 0.00 0.00 0.00 49 969.0